Location: *
(48.8489°N, 2.3218°E)
Time: 10:47:48
(UTC+00:00)

FALCON 9 R/B - Pass Details

Date: 23 August 2019
Orbit: 290 x 10167 km, 34.5° (Epoch: 19 September)

Event Time Altitude Azimuth Distance (km) Brightness Sun altitude
Rises 21:33:00 0° 245° (WSW) 11,128 8.1 -22.4°
Reaches altitude 10° 21:44:49 10° 240° (WSW) 8,074 7.2 -23.5°
Maximum altitude 22:02:44 34° 187° (S) 2,747 4.4 -25.1°
Enters shadow 22:03:20 34° 181° (S) 2,638 4.2 -25.1°
